This is the latest recevied weather packets stored in our database for station/object EA6AMI-5. If no packets are shown the sender has not sent any weather packets the latest 10 day(s).
| Time | Temp. | Humidity | Pressure | Rain* | Wind** | Luminosity | Snow |
|---|---|---|---|---|---|---|---|
| 1777577223 | 18.33° C | 80% | 1017.1 hPa | 0 mm | - | 0 W/m² | - |
| 1777576683 | 18.33° C | 81% | 1017 hPa | 0 mm | - | 0 W/m² | - |
| 1777576144 | 18.33° C | 79% | 1016.8 hPa | 0 mm | - | 0 W/m² | - |
| 1777575604 | 18.89° C | 78% | 1016.7 hPa | 0 mm | - | 0 W/m² | - |
| 1777575243 | 18.89° C | 76% | 1016.6 hPa | 0 mm | - | 0 W/m² | - |
| 1777574704 | 19.44° C | 74% | 1016.6 hPa | 0 mm | - | 1 W/m² | - |
| 1777574163 | 19.44° C | 74% | 1016.3 hPa | 0 mm | - | 4 W/m² | - |
| 1777573623 | 19.44° C | 73% | 1016.1 hPa | 0 mm | - | 8 W/m² | - |
| 1777573083 | 20° C | 72% | 1016.4 hPa | 0 mm | - | 13 W/m² | - |
| 1777572544 | 20.56° C | 70% | 1016.1 hPa | 0 mm | - | 20 W/m² | - |
| 1777572003 | 20.56° C | 69% | 1016.1 hPa | 0 mm | - | 26 W/m² | - |
| 1777571643 | 20.56° C | 69% | 1016.1 hPa | 0 mm | - | 34 W/m² | - |
| 1777571103 | 21.11° C | 68% | 1016 hPa | 0 mm | - | 52 W/m² | - |
| 1777570563 | 21.67° C | 66% | 1015.8 hPa | 0 mm | - | 63 W/m² | - |
| 1777570023 | 21.67° C | 66% | 1015.8 hPa | 0 mm | - | 68 W/m² | - |
| 1777569484 | 21.67° C | 65% | 1015.8 hPa | 0 mm | - | 73 W/m² | - |
| 1777568944 | 22.22° C | 64% | 1015.7 hPa | 0 mm | - | 84 W/m² | - |
| 1777568404 | 22.78° C | 65% | 1015.9 hPa | 0 mm | - | 85 W/m² | - |
| 1777568043 | 22.22° C | 66% | 1015.5 hPa | 0 mm | - | 79 W/m² | - |
| 1777567503 | 22.78° C | 66% | 1015.5 hPa | 0 mm | - | 80 W/m² | - |
| 1777566963 | 22.78° C | 66% | 1015.5 hPa | 0 mm | - | 127 W/m² | - |
| 1777566424 | 23.33° C | 64% | 1015.5 hPa | 0 mm | - | 182 W/m² | - |
| 1777565884 | 23.33° C | 64% | 1015.5 hPa | 0 mm | - | 109 W/m² | - |
| 1777565343 | 23.33° C | 63% | 1015.5 hPa | 0 mm | - | 250 W/m² | - |
| 1777564803 | 23.33° C | 64% | 1015.4 hPa | 0 mm | - | 186 W/m² | - |
* Rain latest hour (hover to see other rain measurements)
** Current wind speed in m/s (hover to see current wind gust speed)